Regional Weather Roundup
Issued by NWS Little Rock, AR

Home | Current Version | Previous Version | Graphics & Text | Print | Product List | Glossary On
Versions: 1 2 3 4 5 6 7 8 9 10 11 12 13 14 15 16 17 18 19 20 21 22 23 24 25 26 27 28 29 30 31 32 33 34 35 36 37 38 39 40 41 42 43 44 45 46 47 48 49 50
104
ASUS44 KLZK 221105
RWRLZK

WEATHER ROUNDUP FOR ARKANSAS
NATIONAL WEATHER SERVICE LITTLE ROCK AR
500 AM CST THU FEB 22 2018

NOTE: "FAIR" INDICATES FEW OR NO CLOUDS BELOW 12,000 FEET WITH NO
SIGNIFICANT WEATHER AND/OR OBSTRUCTIONS TO VISIBILITY.

ARZ001-003-010-029-221200-
NORTHWEST ARKANSAS

CITY           SKY/WX    TMP DP  RH WIND       PRES   REMARKS
FAYETTEVILLE   CLOUDY    34  34 100 NE5       30.32R WCI  30
FORT SMITH     CLOUDY    39  39 100 W6        30.33R FOG
HARRISON       CLOUDY    31  31 100 N3        30.32R FOG
BENTONVILLE    CLOUDY    32  31  96 CALM      30.35R
SILOAM SPGS    CLOUDY    33  33 100 E5        30.32R FOG     WCI  29
HIGHFILL       CLOUDY    33  33 100 E5        30.33R WCI  29
$$

ARZ004-005-016-221200-
NORTH CENTRAL ARKANSAS

CITY           SKY/WX    TMP DP  RH WIND       PRES   REMARKS
BATESVILLE     CLOUDY    37  36  96 NW5       30.33S FOG
FLIPPIN        CLOUDY    34  33  96 NW3       30.35R FOG
MTN HOME       CLOUDY    32  32 100 CALM      30.32S FOG
$$

ARZ040-041-221200-
WEST CENTRAL ARKANSAS

CITY           SKY/WX    TMP DP  RH WIND       PRES   REMARKS
MENA           CLOUDY    43  43 100 CALM      30.27R
MOUNT IDA      CLOUDY    42  42 100 CALM      30.26R FOG
$$

ARZ009-017-025-026-028-221200-
NORTHEAST ARKANSAS

CITY           SKY/WX    TMP DP  RH WIND       PRES   REMARKS
JONESBORO      CLOUDY    39  39 100 N9        30.31R FOG
NEWPORT        MIX PCPN  37  37 100 N12       30.32R FOG
WALNUT RIDGE   CLOUDY    37  37 100 N9        30.32R FOG
BLYTHEVILLE    CLOUDY    41  32  70 N18       30.29R
$$

ARZ022-023-033-042-044-221200-
CENTRAL ARKANSAS

CITY           SKY/WX    TMP DP  RH WIND       PRES   REMARKS
LITTLE ROCK    DRIZZLE   38  38 100 N10       30.30F FOG
N LITTLE ROCK    N/A     37  37 100 N7        30.28F
JACKSONVILLE   CLOUDY    38  38  99 N5        30.29F
SEARCY         CLOUDY    38  38 100 N7        30.32F FOG
HOT SPRINGS    CLOUDY    42  42 100 CALM      30.28S
RUSSELLVILLE   CLOUDY    38  38 100 N6        30.31S FOG
CLINTON        CLOUDY    37  36  93 VRB6      30.33S
$$

ARZ036-221200-
EAST ARKANSAS

CITY           SKY/WX    TMP DP  RH WIND       PRES   REMARKS
WEST MEMPHIS   CLOUDY    40  32  73 N8        30.28R
$$

ARZ050-053-066-070-073-221200-
SOUTHWEST ARKANSAS

CITY           SKY/WX    TMP DP  RH WIND       PRES   REMARKS
ARKADELPHIA    CLOUDY    42  41  96 NE8       30.30R
CAMDEN         CLOUDY    45  41  87 NE6       30.27S
TEXARKANA      CLOUDY    46  46 100 NE6       30.25S FOG
EL DORADO      CLOUDY    45  45 100 N7        30.25S FOG
DE QUEEN       CLOUDY    47  46  97 E7        30.25S
$$

ARZ056-057-069-221200-
SOUTHEAST ARKANSAS

CITY           SKY/WX    TMP DP  RH WIND       PRES   REMARKS
PINE BLUFF     CLOUDY    39  32  76 N14G20    30.30R
STUTTGART      LGT RAIN  38  38 100 N16       30.30S FOG
MONTICELLO     RAIN      44  42  93 VRB3      30.26R

$$






USA.gov is the U.S. government's official web portal to all federal, state and local government web resources and services.